Regional Weather Roundup
Issued by NWS

Home | Current Version | Previous Version | Text Only | Print | Product List | Glossary Off
Versions: 1 2 3 4 5 6 7 8 9 10 11 12 13 14 15 16 17 18 19 20 21 22 23 24 25 26 27 28 29 30 31 32 33 34 35 36 37 38 39 40 41 42 43 44 45 46 47 48 49 50

000
ASUS44 KMEG 090500
RWRTN
TENNESSEE HOURLY STATE WEATHER ROUNDUP
NATIONAL WEATHER SERVICE MEMPHIS TN
1100 PM CST MON FEB 08 2016

TNZ002-004-019-021-049-052-054-088>092-090600-
WEST TENNESSEE

CITY           SKY/WX    TMP DP  RH WIND       PRES   REMARKS
MEMPHIS INTL   CLOUDY    37  19  48 NW9       30.00S WCI  30
NWS MEMPHIS      N/A     35 N/A N/A MISG        N/A
JACKSON        CLOUDY    33  20  58 NW14      29.95F WCI  23
DYERSBURG      CLOUDY    32  18  55 NW15G22   29.98S WCI  22
UNION CITY     CLOUDY    28  19  69 NW9       29.93S WCI  20
PARIS          CLOUDY    27  18  69 NW7       29.91F WCI  19
$$

TNZ008-025-027-028-033-062-065-066-090600-
NORTH MIDDLE TENNESSEE

CITY           SKY/WX    TMP DP  RH WIND       PRES   REMARKS
NASHVILLE      FLURRIES  27  21  78 NW10      29.89F WCI  17
CLARKSVILLE    FLURRIES  26  20  77 NW8       29.90F WCI  18
SMYRNA         LGT SNOW  28  27  93 N12       29.91R VSB 1   WCI  18
COOKEVILLE     MOCLDY    28  21  74 VRB5      29.81F WCI  23
CROSSVILLE     FLURRIES  25  18  74 W13G22    29.77F WCI  14
$$

TNZ061-075-076-078-094-096-097-090600-
SOUTH MIDDLE TENNESSEE

CITY           SKY/WX    TMP DP  RH WIND       PRES   REMARKS
TULLAHOMA      MOCLDY    28  27  93 W9        29.86F WCI  20
WINCHESTER     CLOUDY    28  27  93 VRB6      29.87S WCI  22
MCMINNVILLE    CLOUDY    27  25  93 VRB6      29.84F WCI  20
COLUMBIA       CLOUDY    30  27  86 NW5       29.88S WCI  25
SHELBYVILLE    CLOUDY    30  27  86 W9        29.88F WCI  22
$$

TNZ017-018-042-046-047-090600-
NORTHEAST TENNESSEE

CITY           SKY/WX    TMP DP  RH WIND       PRES   REMARKS
TRI CITIES     LGT SNOW  31  29  92 W8        29.67F VSB 1   WCI  23
$$

TNZ012-013-036-069-073-074-090600-
CENTRAL EAST TENNESSEE

CITY           SKY/WX    TMP DP  RH WIND       PRES   REMARKS
KNOXVILLE      NOT AVBL
OAK RIDGE      CLOUDY    31  21  66 SW7       29.81F WCI  24
GATLINBURG     CLOUDY    28  25  86 W8        29.77F WCI  20
$$

TNZ083-085-099-090600-
SOUTHEAST TENNESSEE

CITY           SKY/WX    TMP DP  RH WIND       PRES   REMARKS
CHATTANOOGA    FLURRIES  34  25  69 NW12      29.84F WCI  25
$$

SKY/WX REPORTED AS FAIR MEANS FEW OR NO CLOUDS BELOW
12 THOUSAND FEET.




USA.gov is the U.S. government's official web portal to all federal, state and local government web resources and services.